TimeEDT,TemperatureF,Dew PointF,Humidity,Sea Level PressureIn,VisibilityMPH,Wind Direction,Wind SpeedMPH,Gust SpeedMPH,PrecipitationIn,Events,Conditions,WindDirDegrees,DateUTC
12:01 AM,80.6,75.2,84,30.00,10.0,East,12.7,-,N/A,,Scattered Clouds,80,2013-09-17 04:01:00
12:24 AM,80.6,73.4,79,29.99,10.0,East,11.5,-,N/A,,Mostly Cloudy,90,2013-09-17 04:24:00
12:53 AM,79.5,73.0,80,29.99,10.0,East,11.5,-,N/A,,Mostly Cloudy,90,2013-09-17 04:53:00
1:18 AM,80.6,73.4,79,29.98,10.0,East,11.5,-,N/A,,Scattered Clouds,100,2013-09-17 05:18:00
1:53 AM,79.7,72.9,80,29.97,10.0,East,9.2,-,N/A,,Scattered Clouds,90,2013-09-17 05:53:00
2:53 AM,79.9,73.0,80,29.96,10.0,East,6.9,-,N/A,,Scattered Clouds,90,2013-09-17 06:53:00
3:38 AM,80.6,73.4,79,29.95,10.0,East,8.1,-,N/A,,Mostly Cloudy,100,2013-09-17 07:38:00
3:53 AM,80.8,73.6,79,29.95,10.0,ESE,6.9,-,N/A,,Mostly Cloudy,110,2013-09-17 07:53:00
4:33 AM,78.8,73.4,83,29.95,10.0,East,8.1,-,N/A,,Scattered Clouds,80,2013-09-17 08:33:00
4:53 AM,79.2,73.4,82,29.95,10.0,East,6.9,-,N/A,,Scattered Clouds,90,2013-09-17 08:53:00
5:33 AM,77.0,68.0,74,29.95,10.0,SE,16.1,28.8,0.00,Rain,Light Rain,140,2013-09-17 09:33:00
5:42 AM,77.0,68.0,74,29.96,2.5,SSE,16.1,26.5,0.02,Rain,Heavy Rain,150,2013-09-17 09:42:00
5:48 AM,77.0,68.0,74,29.96,3.0,SSE,11.5,-,0.07,Rain-Thunderstorm,Heavy Thunderstorms and Rain,150,2013-09-17 09:48:00
5:53 AM,76.6,68.2,75,29.96,6.0,SE,8.1,-,0.09,Rain-Thunderstorm,Light Thunderstorms and Rain,140,2013-09-17 09:53:00
6:13 AM,77.0,69.8,78,29.96,10.0,East,3.5,-,0.03,Rain,Light Rain,80,2013-09-17 10:13:00
6:53 AM,76.6,73.4,90,29.97,10.0,NNW,4.6,-,0.04,Rain,Light Rain,330,2013-09-17 10:53:00
7:30 AM,77.0,71.6,83,29.97,10.0,NW,3.5,-,0.03,Rain-Thunderstorm,Light Thunderstorms and Rain,320,2013-09-17 11:30:00
7:46 AM,77.0,71.6,83,29.98,10.0,Variable,4.6,-,0.05,Rain-Thunderstorm,Light Thunderstorms and Rain,0,2013-09-17 11:46:00
7:53 AM,76.5,70.7,82,29.98,10.0,SSW,4.6,-,0.07,Rain-Thunderstorm,Light Thunderstorms and Rain,210,2013-09-17 11:53:00
8:18 AM,77.0,71.6,83,29.98,10.0,WSW,3.5,-,0.04,Rain,Light Rain,250,2013-09-17 12:18:00
8:53 AM,77.7,74.5,90,29.99,10.0,Calm,Calm,-,0.04,,Mostly Cloudy,0,2013-09-17 12:53:00
9:53 AM,78.8,75.0,88,30.02,10.0,ENE,16.1,24.2,0.00,Rain-Thunderstorm,Light Thunderstorms and Rain,60,2013-09-17 13:53:00
10:11 AM,73.4,69.8,88,30.03,4.0,ESE,13.8,-,0.00,Rain-Thunderstorm,Thunderstorms and Rain,110,2013-09-17 14:11:00
10:24 AM,78.8,75.2,89,30.05,1.0,ESE,6.9,-,0.06,Rain-Thunderstorm,Heavy Thunderstorms and Rain,110,2013-09-17 14:24:00
10:33 AM,75.2,66.2,73,30.06,2.0,SSW,6.9,-,0.15,Rain-Thunderstorm,Heavy Thunderstorms and Rain,210,2013-09-17 14:33:00
10:42 AM,75.2,69.8,83,30.04,3.0,SSW,5.8,-,0.21,Rain-Thunderstorm,Heavy Thunderstorms and Rain,200,2013-09-17 14:42:00
10:53 AM,75.6,69.1,80,30.03,3.0,Calm,Calm,-,0.24,Rain-Thunderstorm,Thunderstorms and Rain,0,2013-09-17 14:53:00
11:23 AM,75.2,69.8,83,30.03,10.0,Calm,Calm,-,0.02,Rain,Light Rain,0,2013-09-17 15:23:00
11:53 AM,75.7,71.2,86,30.06,10.0,North,9.2,-,0.02,Rain,Light Rain,360,2013-09-17 15:53:00
12:53 PM,75.7,72.0,88,30.02,10.0,North,8.1,-,0.07,Rain,Light Rain,350,2013-09-17 16:53:00
1:53 PM,77.7,72.7,84,30.00,10.0,NE,3.5,-,0.04,Rain,Light Rain,50,2013-09-17 17:53:00
2:53 PM,79.2,72.3,79,29.99,10.0,NE,5.8,-,0.01,Rain,Light Rain,50,2013-09-17 18:53:00
3:43 PM,78.8,77.0,94,29.97,10.0,NE,9.2,-,0.00,Rain,Light Rain,50,2013-09-17 19:43:00
3:53 PM,79.0,73.9,84,29.96,10.0,ENE,10.4,-,0.00,Rain,Light Rain,60,2013-09-17 19:53:00
4:53 PM,79.0,74.5,86,29.95,10.0,East,12.7,-,0.00,Rain,Light Rain,80,2013-09-17 20:53:00
5:02 PM,80.6,75.2,84,29.95,10.0,ENE,8.1,-,0.00,Rain,Light Rain,60,2013-09-17 21:02:00
5:53 PM,79.0,73.6,83,29.95,10.0,NE,9.2,-,0.00,,Mostly Cloudy,50,2013-09-17 21:53:00
6:53 PM,80.1,73.2,80,29.94,10.0,NE,9.2,-,N/A,,Overcast,50,2013-09-17 22:53:00
7:53 PM,80.1,73.6,81,29.93,10.0,NE,10.4,-,N/A,,Mostly Cloudy,50,2013-09-17 23:53:00
8:53 PM,81.0,73.8,79,29.95,10.0,ENE,12.7,-,0.00,,Mostly Cloudy,70,2013-09-18 00:53:00
9:53 PM,81.0,73.8,79,29.97,10.0,East,9.2,-,N/A,,Scattered Clouds,90,2013-09-18 01:53:00
10:53 PM,80.1,73.6,81,29.98,10.0,East,9.2,-,N/A,,Scattered Clouds,100,2013-09-18 02:53:00
11:53 PM,79.5,72.1,78,29.97,10.0,East,8.1,-,N/A,,Mostly Cloudy,90,2013-09-18 03:53:00